User: anonymous   Login
Location: Unspecified
(0.0000°N, 0.0000°E)
Time: 05:43:41
(UTC+02:00)
Language:

CZ-4B DEB - Orbit

View from above orbital plane
View from above orbital plane
View from above satellite
View from above satellite

Ground track
Ground track

The orbit data is extracted from the following two-line orbital elements,

1 33411U 08053D   17230.70623471  .00059555  00000-0  52518-3 0  9994
2 33411  97.4005 282.7073 0004189  97.8609 262.3128 15.68531622486156
Epoch (UTC): 18 August 2017 16:56:58
Eccentricity: 0.0004189
inclination: 97.4005°
perigee height: 360 km
apogee height: 366 km
right ascension of ascending node: 282.7073°
argument of perigee: 97.8609°
revolutions per day: 15.68531622
mean anomaly at epoch: 262.3128°
orbit number at epoch: 48615

The dashed part of the orbit path shows where the satellite is in the earth's shadow,  

DLR